Location: Staunton
(38.1490°N, 79.0720°W)
Time: 23:49:19
(UTC-05:00)

ISS - Pass Details

Date: 22 February 2020
Orbit: 415 x 423 km, 51.6° (Epoch: 27 February)

Event Time Altitude Azimuth Distance (km) Brightness Sun altitude
Exits shadow 05:18:50 19° 178° (S) 1,067 -1.7 -20.3°
Maximum altitude 05:20:27 28° 133° (SE) 812 -1.9 -20.0°
Drops below altitude 10° 05:23:24 10° 72° (ENE) 1,500 0.2 -19.4°
Sets 05:25:40 0° 60° (ENE) 2,369 1.2 -18.9°
